Deer Park, WA
on Monday, February 25, 2013

Monday
Previous Day Next Day
Daily Summary
 ActualAverageRecord
Temperature
Mean Temperature °F / °C 32°F / 0°C  
Max Temperature 39°F / 4°C 42°F / 6°C 52°F / 11°C (2005)
Min Temperature 28°F / -2°C 22°F / -6°C -10°F / -23°C (2011)
Degree Days
Heating Degree Days 31 33  
Month to date heating degree days 872 872  
Since 1 July heating degree days 4980 5268  
Cooling Degree Days 0 0  
Month to date cooling degree days 0 0  
Year to date cooling degree days 0 0  
Moisture
Dew Point 30°F / -1°C   
Average Humidity 85    
Maximum Humidity 100    
Minimum Humidity 70    
Precipitation
Precipitation 0.26 in / 6.60 cm 0.05 in / 1.27 cm 0.30 in / 0.76 cm (2012)
Month to date precipitation 0.79 1.43  
Year to date precipitation 2.29 4.06  
Wind
Wind Speed 6 mph / 9 km/h   
Max Wind Speed 15 mph / 24 km/h   
Max Gust Speed 20 mph / 32 km/h   
Visibility 6 miles / 10 kilometers   
Events Fog , Snow   

Key: T is trace of precipitation, MM is missing value
Source: NWS Daily Summary
Time(PST)TemperatureDew PointHumidity Pressure Visibility Wind DirectionWind SpeedGust SpeedPrecipitationEvents Conditions
12:53 AM 32.0°F / 0.0°C 28.0°F / -2.2°C 85% 30.08 in / 1018.5 hPa 10.0 miles / 16.1 kilometers Calm Calm - N/A   Overcast
1:53 AM 30.9°F / -0.6°C 27.0°F / -2.8°C 85% 30.04 in / 1017.2 hPa 10.0 miles / 16.1 kilometers Calm Calm - N/A   Overcast
2:53 AM 30.9°F / -0.6°C 27.0°F / -2.8°C 85% 30.00 in / 1015.8 hPa 10.0 miles / 16.1 kilometers Calm Calm - N/A   Overcast
3:53 AM 30.9°F / -0.6°C 28.0°F / -2.2°C 89% 29.97 in / 1014.8 hPa 10.0 miles / 16.1 kilometers North 4.6 mph / 7.4 km/h - N/A   Overcast
4:42 AM 30.2°F / -1.0°C 28.4°F / -2.0°C 93% 29.92 in / 1013.1 hPa 3.0 miles / 4.8 kilometers Calm Calm - 0.00 in / 0.0 cm Snow Light Snow
4:46 AM 30.2°F / -1.0°C 28.4°F / -2.0°C 93% 29.92 in / 1013.1 hPa 1.8 miles / 2.8 kilometers Calm Calm - 0.00 in / 0.0 cm Snow Light Snow
4:53 AM 30.9°F / -0.6°C 28.9°F / -1.7°C 92% 29.97 in / 1014.9 hPa 1.0 miles / 1.6 kilometers Calm Calm - 0.01 in / 0.3 cm Snow Light Snow
5:01 AM 30.2°F / -1.0°C 30.2°F / -1.0°C 100% 29.92 in / 1013.1 hPa 1.0 miles / 1.6 kilometers Calm Calm - 0.01 in / 0.3 cm Snow Light Snow
5:45 AM 30.2°F / -1.0°C 30.2°F / -1.0°C 100% 29.90 in / 1012.4 hPa 1.0 miles / 1.6 kilometers SE 5.8 mph / 9.3 km/h - 0.04 in / 1.0 cm Snow Light Snow
5:53 AM 30.9°F / -0.6°C 30.9°F / -0.6°C 100% 29.95 in / 1014.1 hPa 1.0 miles / 1.6 kilometers SE 5.8 mph / 9.3 km/h - 0.04 in / 1.0 cm Snow Light Snow
6:11 AM 30.2°F / -1.0°C 30.2°F / -1.0°C 100% 29.89 in / 1012.1 hPa 0.8 miles / 1.2 kilometers ESE 5.8 mph / 9.3 km/h - 0.03 in / 0.8 cm Snow Light Snow
6:36 AM 30.2°F / -1.0°C 30.2°F / -1.0°C 100% 29.89 in / 1012.1 hPa 0.5 miles / 0.8 kilometers SE 4.6 mph / 7.4 km/h - 0.06 in / 1.5 cm Fog , Snow Snow
6:53 AM 30.9°F / -0.6°C 30.9°F / -0.6°C 100% 29.94 in / 1013.8 hPa 0.5 miles / 0.8 kilometers SE 4.6 mph / 7.4 km/h - 0.09 in / 2.3 cm Fog , Snow Snow
7:53 AM 32.0°F / 0.0°C 30.9°F / -0.6°C 96% 29.93 in / 1013.4 hPa 0.5 miles / 0.8 kilometers SSE 9.2 mph / 14.8 km/h - 0.07 in / 1.8 cm Fog , Snow Snow
8:06 AM 32.0°F / 0.0°C 32.0°F / 0.0°C 100% 29.87 in / 1011.4 hPa 0.5 miles / 0.8 kilometers SSE 8.1 mph / 13.0 km/h - 0.00 in / 0.0 cm Fog , Snow Snow
8:45 AM 32.0°F / 0.0°C 32.0°F / 0.0°C 100% 29.87 in / 1011.4 hPa 1.0 miles / 1.6 kilometers South 8.1 mph / 13.0 km/h - 0.03 in / 0.8 cm Snow Light Snow
8:53 AM 32.0°F / 0.0°C 32.0°F / 0.0°C 100% 29.93 in / 1013.5 hPa 1.5 miles / 2.4 kilometers South 9.2 mph / 14.8 km/h - 0.03 in / 0.8 cm Snow Light Snow
8:59 AM 32.0°F / 0.0°C 32.0°F / 0.0°C 100% 29.88 in / 1011.7 hPa 3.0 miles / 4.8 kilometers South 9.2 mph / 14.8 km/h - 0.00 in / 0.0 cm Snow Light Snow
9:16 AM 33.8°F / 1.0°C 32.0°F / 0.0°C 93% 29.88 in / 1011.7 hPa 1.8 miles / 2.8 kilometers South 8.1 mph / 13.0 km/h - 0.00 in / 0.0 cm Snow Light Snow
9:40 AM 33.8°F / 1.0°C 32.0°F / 0.0°C 93% 29.87 in / 1011.4 hPa 1.0 miles / 1.6 kilometers SSE 8.1 mph / 13.0 km/h - 0.01 in / 0.3 cm Snow Light Snow
9:53 AM 33.1°F / 0.6°C 32.0°F / 0.0°C 96% 29.92 in / 1013.2 hPa 3.0 miles / 4.8 kilometers South 10.4 mph / 16.7 km/h - 0.01 in / 0.3 cm Snow Light Snow
10:04 AM 33.8°F / 1.0°C 32.0°F / 0.0°C 93% 29.87 in / 1011.4 hPa 8.0 miles / 12.9 kilometers South 11.5 mph / 18.5 km/h - 0.01 in / 0.3 cm Snow Light Snow
10:50 AM 35.6°F / 2.0°C 32.0°F / 0.0°C 87% 29.88 in / 1011.7 hPa 10.0 miles / 16.1 kilometers SW 10.4 mph / 16.7 km/h 18.4 mph / 29.6 km/h 0.01 in / 0.3 cm   Overcast
10:53 AM 35.1°F / 1.7°C 32.0°F / 0.0°C 89% 29.93 in / 1013.5 hPa 10.0 miles / 16.1 kilometers SSW 13.8 mph / 22.2 km/h 18.4 mph / 29.6 km/h 0.01 in / 0.3 cm   Overcast
11:31 AM 35.6°F / 2.0°C 32.0°F / 0.0°C 87% 29.88 in / 1011.7 hPa 10.0 miles / 16.1 kilometers SW 12.7 mph / 20.4 km/h - N/A   Overcast
11:53 AM 36.0°F / 2.2°C 32.0°F / 0.0°C 86% 29.94 in / 1013.8 hPa 10.0 miles / 16.1 kilometers SSW 11.5 mph / 18.5 km/h - N/A   Mostly Cloudy
12:53 PM 36.0°F / 2.2°C 32.0°F / 0.0°C 86% 29.94 in / 1013.7 hPa 10.0 miles / 16.1 kilometers South 10.4 mph / 16.7 km/h - N/A   Overcast
1:53 PM 37.0°F / 2.8°C 32.0°F / 0.0°C 82% 29.94 in / 1013.9 hPa 10.0 miles / 16.1 kilometers SSW 10.4 mph / 16.7 km/h - N/A   Overcast
2:00 PM 37.4°F / 3.0°C 32.0°F / 0.0°C 81% 29.89 in / 1012.1 hPa 10.0 miles / 16.1 kilometers SSW 10.4 mph / 16.7 km/h - N/A   Overcast
2:53 PM 37.0°F / 2.8°C 32.0°F / 0.0°C 82% 29.94 in / 1013.9 hPa 10.0 miles / 16.1 kilometers South 4.6 mph / 7.4 km/h - N/A   Overcast
3:53 PM 37.9°F / 3.3°C 30.0°F / -1.1°C 73% 29.95 in / 1014.1 hPa 10.0 miles / 16.1 kilometers South 4.6 mph / 7.4 km/h - N/A   Overcast
4:53 PM 37.0°F / 2.8°C 30.0°F / -1.1°C 76% 29.96 in / 1014.6 hPa 10.0 miles / 16.1 kilometers South 4.6 mph / 7.4 km/h - N/A   Overcast
5:53 PM 36.0°F / 2.2°C 27.0°F / -2.8°C 70% 29.98 in / 1015.1 hPa 10.0 miles / 16.1 kilometers SW 4.6 mph / 7.4 km/h - N/A   Overcast
6:53 PM 36.0°F / 2.2°C 27.0°F / -2.8°C 70% 30.00 in / 1015.9 hPa 10.0 miles / 16.1 kilometers SSW 5.8 mph / 9.3 km/h - N/A   Overcast
7:53 PM 34.0°F / 1.1°C 27.0°F / -2.8°C 75% 30.02 in / 1016.5 hPa 10.0 miles / 16.1 kilometers SSW 5.8 mph / 9.3 km/h - N/A   Overcast
8:53 PM 33.1°F / 0.6°C 27.0°F / -2.8°C 78% 30.05 in / 1017.5 hPa 10.0 miles / 16.1 kilometers Calm Calm - N/A   Overcast
9:53 PM 33.1°F / 0.6°C 27.0°F / -2.8°C 78% 30.08 in / 1018.5 hPa 10.0 miles / 16.1 kilometers SE 6.9 mph / 11.1 km/h - N/A   Mostly Cloudy
10:53 PM 28.9°F / -1.7°C 24.1°F / -4.4°C 82% 30.10 in / 1019.3 hPa 10.0 miles / 16.1 kilometers SSE 8.1 mph / 13.0 km/h - N/A   Clear
11:53 PM 28.9°F / -1.7°C 24.1°F / -4.4°C 82% 30.13 in / 1020.1 hPa 10.0 miles / 16.1 kilometers SE 8.1 mph / 13.0 km/h - N/A   Mostly Cloudy
Moon Phase
Feb. 25 Feb. 25 Mar. 04 Mar. 11 Mar. 19
Sunrise:06:37 AM (PST) Moon Rise:05:52 PM (PST)
Sunset:05:28 PM (PST) Moon Set:06:07 AM (PST)

Copyright © 2014 The Weather Underground, Inc.